Weather History for Boscobel, WI

Change the Weather History Date:

Friday, April 12, 2013

  Actual Average (KPDC) Record (KPDC)
Temperature  
Mean Temperature 37 °F -  
Max Temperature 39 °F 59 °F 84 °F (1977)
Min Temperature 35 °F 36 °F 22 °F (1957)
Degree Days  
Heating Degree Days 28    
Moisture  
Dew Point 31 °F    
Average Humidity 82    
Maximum Humidity 100    
Minimum Humidity 62    
Precipitation  
Precipitation 0.02 in - - ()
Sea Level Pressure  
Sea Level Pressure 29.67 in    
Wind  
Wind Speed 4 mph (West)    
Max Wind Speed 13 mph    
Max Gust Speed 21 mph    
Visibility 8 miles    
Events Rain    
Averages and records for this station are not official NWS values.
T = Trace of Precipitation, MM = Missing Value Source: NWS Daily Summary

Daily Weather History Graph

Daily Weather History Graph

Search for Another Location

Airport:

Trip Planner

Search our weather history database for the weather conditions in past years. The results will help you decide how hot, cold, wet, or windy it might be!

Date:

Astronomy

Apr. 12, 2013 Rise Set
Actual Time 6:25 AM CDT 7:42 PM CDT
Civil Twilight 5:55 AM CDT 8:11 PM CDT
Nautical Twilight 5:20 AM CDT 8:47 PM CDT
Astronomical Twilight 4:43 AM CDT 9:24 PM CDT
Moon 7:31 AM CDT (4/12) 10:17 PM CDT (4/12)
Length of Visible Light 14h 15m
Length of Day
13h 17m
Waxing Crescent, 5% of the Moon is Illuminated
Apr 12
Waxing Crescent
Apr 18
First Quarter
Apr 25
Full
May 2
Last Quarter
May 9
New

Hourly Weather History & Observations

Time (CDT) Temp. Windchill Dew Point Humidity Pressure Visibility Wind Dir Wind Speed Gust Speed Precip Events Conditions
12:53 AM 36.0 °F 32.1 °F 34.0 °F 93% 29.60 in 10.0 mi Variable 4.6 mph - 0.01 in   Overcast
1:46 AM 35.6 °F - 33.8 °F 93% 29.58 in 2.5 mi Calm Calm - N/A   Overcast
1:53 AM 36.0 °F - 34.0 °F 93% 29.59 in 2.0 mi Calm Calm - N/A   Overcast
2:53 AM 36.0 °F - 34.0 °F 93% 29.58 in 2.5 mi Calm Calm - N/A   Overcast
3:04 AM 35.6 °F - 33.8 °F 93% 29.56 in 3.0 mi Calm Calm - N/A   Overcast
3:19 AM 35.6 °F - 33.8 °F 93% 29.56 in 3.0 mi Calm Calm - N/A   Overcast
3:43 AM 35.6 °F - 35.6 °F 100% 29.55 in 6.0 mi Calm Calm - N/A   Overcast
3:53 AM 36.0 °F - 34.0 °F 93% 29.57 in 6.0 mi Calm Calm - N/A   Overcast
4:31 AM 35.6 °F - 33.8 °F 93% 29.55 in 2.5 mi Calm Calm - N/A   Overcast
4:53 AM 36.0 °F - 35.1 °F 97% 29.57 in 2.0 mi Calm Calm - N/A   Overcast
5:06 AM 35.6 °F - 35.6 °F 100% 29.55 in 1.8 mi Calm Calm - N/A   Overcast
5:15 AM 35.6 °F - 33.8 °F 93% 29.55 in 2.0 mi Calm Calm - 0.00 in Rain Light Rain
5:38 AM 35.6 °F 32.8 °F 33.8 °F 93% 29.55 in 3.0 mi North 3.5 mph - 0.00 in Rain Light Rain
5:53 AM 36.0 °F 33.3 °F 34.0 °F 93% 29.57 in 3.0 mi NNE 3.5 mph - 0.00 in Rain Light Rain
6:20 AM 35.6 °F - 33.8 °F 93% 29.56 in 5.0 mi Calm Calm - 0.00 in Rain Light Rain
6:53 AM 35.1 °F - 34.0 °F 96% 29.58 in 7.0 mi Calm Calm - 0.01 in Rain Light Rain
7:00 AM 35.6 °F - 33.8 °F 93% 29.56 in 7.0 mi Calm Calm - 0.00 in Rain Light Rain
7:33 AM 35.6 °F - 33.8 °F 93% 29.57 in 8.0 mi Calm Calm - 0.00 in   Overcast
7:53 AM 36.0 °F - 33.1 °F 89% 29.60 in 10.0 mi Calm Calm - 0.00 in   Overcast
8:10 AM 35.6 °F 32.8 °F 33.8 °F 93% 29.59 in 10.0 mi NNW 3.5 mph - N/A   Overcast
8:46 AM 37.4 °F 33.8 °F 33.8 °F 87% 29.60 in 10.0 mi North 4.6 mph - N/A   Overcast
8:53 AM 37.0 °F 33.3 °F 34.0 °F 89% 29.62 in 6.0 mi NNW 4.6 mph - 0.00 in Rain Light Rain
9:13 AM 37.4 °F 32.8 °F 33.8 °F 87% 29.61 in 10.0 mi WNW 5.8 mph - 0.00 in   Overcast
9:22 AM 37.4 °F 31.4 °F 33.8 °F 87% 29.61 in 10.0 mi NW 8.1 mph - 0.00 in   Overcast
9:53 AM 37.9 °F 31.5 °F 34.0 °F 86% 29.64 in 10.0 mi NNW 9.2 mph - 0.00 in   Overcast
10:53 AM 39.0 °F 34.0 °F 33.1 °F 79% 29.65 in 10.0 mi WNW 6.9 mph - N/A   Overcast
11:02 AM 37.4 °F 32.1 °F 32.0 °F 81% 29.63 in 10.0 mi NW 6.9 mph - N/A   Overcast
11:53 AM 39.0 °F 33.4 °F 30.9 °F 73% 29.67 in 10.0 mi West 8.1 mph - N/A   Overcast
12:53 PM 37.9 °F 31.5 °F 30.0 °F 73% 29.70 in 10.0 mi West 9.2 mph - N/A   Overcast
1:53 PM 37.9 °F 30.9 °F 30.0 °F 73% 29.72 in 10.0 mi West 10.4 mph 16.1 mph N/A   Overcast
2:53 PM 37.0 °F 29.3 °F 28.0 °F 70% 29.75 in 10.0 mi West 11.5 mph 17.3 mph N/A   Overcast
3:48 PM 37.4 °F 29.8 °F 26.6 °F 65% 29.74 in 10.0 mi West 11.5 mph - N/A   Overcast
3:53 PM 37.0 °F 29.8 °F 27.0 °F 67% 29.77 in 10.0 mi West 10.4 mph 18.4 mph N/A   Overcast
4:29 PM 37.4 °F 30.3 °F 28.4 °F 70% 29.75 in 10.0 mi WSW 10.4 mph 17.3 mph N/A   Overcast
4:53 PM 37.9 °F 30.0 °F 26.1 °F 62% 29.78 in 10.0 mi WSW 12.7 mph 20.7 mph N/A   Overcast
5:53 PM 37.9 °F 32.1 °F 27.0 °F 65% 29.80 in 10.0 mi West 8.1 mph - N/A   Overcast
6:44 PM 37.4 °F 30.8 °F 26.6 °F 65% 29.79 in 10.0 mi West 9.2 mph - N/A   Overcast
6:53 PM 37.0 °F 31.0 °F 27.0 °F 67% 29.81 in 10.0 mi West 8.1 mph - N/A   Overcast
7:06 PM 37.4 °F 31.4 °F 26.6 °F 65% 29.79 in 10.0 mi West 8.1 mph - N/A   Overcast
7:53 PM 37.0 °F 30.4 °F 26.1 °F 65% 29.82 in 10.0 mi WSW 9.2 mph - N/A   Overcast
8:53 PM 36.0 °F 30.3 °F 27.0 °F 70% 29.83 in 10.0 mi WSW 6.9 mph - N/A   Overcast
9:53 PM 36.0 °F 29.6 °F 27.0 °F 70% 29.85 in 10.0 mi WSW 8.1 mph - N/A   Overcast
10:53 PM 36.0 °F 29.6 °F 28.0 °F 73% 29.85 in 10.0 mi WSW 8.1 mph - N/A   Overcast
11:02 PM 35.6 °F 29.9 °F 28.4 °F 75% 29.83 in 10.0 mi WSW 6.9 mph - N/A   Overcast
11:13 PM 35.6 °F 29.2 °F 28.4 °F 75% 29.82 in 10.0 mi WSW 8.1 mph - N/A   Overcast
11:36 PM 35.6 °F 30.7 °F 28.4 °F 75% 29.83 in 10.0 mi SW 5.8 mph - N/A   Overcast
11:53 PM 36.0 °F 29.6 °F 28.0 °F 73% 29.85 in 10.0 mi WSW 8.1 mph - N/A   Overcast